Weather History for PAGA - June, 2013

Change the Weather History Date:

Wednesday, June 26, 2013

  Actual Average Record
Temperature  
Mean Temperature 70 °F -  
Max Temperature 73 °F 68 °F 86 °F (1971)
Min Temperature 66 °F 51 °F 42 °F (2004)
Cooling Degree Days 4    
Growing Degree Days 20 (Base 50)    
Moisture  
Dew Point 61 °F    
Average Humidity 72    
Maximum Humidity 87    
Minimum Humidity 66    
Precipitation  
Precipitation 0.00 in - - ()
Sea Level Pressure  
Sea Level Pressure 29.75 in    
Wind  
Wind Speed 3 mph (ENE)    
Max Wind Speed 9 mph    
Max Gust Speed -    
Visibility 10 miles    
Events Rain    
Averages and records for this station are not official NWS values.
T = Trace of Precipitation, MM = Missing Value Source: NWS Daily Summary

Daily Weather History Graph

Daily Weather History Graph

Search for Another Location

Airport or City:

Trip Planner

Search our weather history database for the weather conditions in past years. The results will help you decide how hot, cold, wet, or windy it might be!

Date:

Astronomy

Jun. 26, 2013 Rise Set
Actual Time 3:42 AM AKDT 1:17 AM AKDT
Civil Twilight Sun does not set Sun does not set
Nautical Twilight Sun does not set Sun does not set
Astronomical Twilight Sun does not set Sun does not set
Moon 12:57 AM AKDT (6/26) 10:10 AM AKDT (6/26)
Length of Visible Light 24h 00m
Length of Day
21h 35m
Waning Gibbous, 84% of the Moon is Illuminated
Jun 26
Waning Gibbous
Jun 29
Last Quarter
Jul 7
New
Jul 15
First Quarter
Jul 22
Full

Hourly Weather History & Observations

Time (AKDT) Temp. Dew Point Humidity Pressure Visibility Wind Dir Wind Speed Gust Speed Precip Events Conditions
12:58 AM 70.0 °F 61.0 °F 73% 29.68 in 10.0 mi Calm Calm - N/A   Overcast
1:58 AM 68.0 °F 59.0 °F 73% 29.68 in 10.0 mi Calm Calm - N/A   Scattered Clouds
2:58 AM 68.0 °F 59.0 °F 73% 29.68 in 10.0 mi Calm Calm - N/A   Mostly Cloudy
3:58 AM 68.0 °F 59.0 °F 73% 29.71 in 8.0 mi ESE 9.2 mph - N/A Rain Rain
4:58 AM 66.9 °F 57.0 °F 70% 29.68 in 10.0 mi North 4.6 mph - N/A   Clear
5:58 AM 66.0 °F 59.0 °F 78% 29.70 in 10.0 mi ESE 3.5 mph - N/A   Clear
6:58 AM 66.0 °F 60.1 °F 81% 29.71 in 10.0 mi Calm Calm - N/A   Overcast
7:58 AM 69.1 °F 59.0 °F 70% 29.73 in 10.0 mi Calm Calm - N/A   Scattered Clouds
8:58 AM 71.1 °F 60.1 °F 68% 29.73 in 10.0 mi West 8.1 mph - N/A   Clear
9:58 AM 69.1 °F 60.1 °F 73% 29.74 in 10.0 mi NNW 6.9 mph - N/A   Clear
10:58 AM 66.9 °F 61.0 °F 81% 29.77 in 10.0 mi WNW 6.9 mph - N/A Rain Light Rain
11:58 AM 66.0 °F 62.1 °F 87% 29.78 in 10.0 mi Calm Calm - N/A Rain Light Rain
12:58 PM 71.1 °F 59.0 °F 66% 29.78 in 10.0 mi Variable 5.8 mph - N/A   Clear
1:58 PM 71.1 °F 60.1 °F 68% 29.79 in 10.0 mi NE 5.8 mph - N/A   Clear
2:58 PM 73.0 °F 61.0 °F 66% 29.79 in 10.0 mi Calm Calm - N/A   Clear
3:58 PM 73.0 °F 62.1 °F 68% 29.78 in 10.0 mi East 4.6 mph - N/A   Clear
4:58 PM 72.0 °F 63.0 °F 73% 29.79 in 9.0 mi ESE 6.9 mph - N/A   Clear
5:58 PM 72.0 °F 62.1 °F 71% 29.78 in 9.0 mi NE 3.5 mph - N/A   Clear
6:58 PM 72.0 °F 62.1 °F 71% 29.78 in 10.0 mi ESE 4.6 mph - N/A   Clear
7:58 PM 73.9 °F 62.1 °F 66% 29.78 in 10.0 mi SSE 3.5 mph - N/A   Clear
8:58 PM 73.0 °F 62.1 °F 68% 29.78 in 9.0 mi Calm Calm - N/A   Clear
9:58 PM 73.0 °F 63.0 °F 71% 29.78 in 10.0 mi Calm Calm - N/A   Clear
10:58 PM 73.0 °F 64.0 °F 73% 29.79 in 8.0 mi Calm Calm - N/A   Scattered Clouds
11:58 PM 71.1 °F 62.1 °F 73% 29.81 in 10.0 mi WNW 5.8 mph - N/A   Mostly Cloudy